UAE414 OMDB-YSSY

Flight info

Callsign UAE414
Flight time N/A
Altitude 31000
Route ANVIX L223 TARDI N629 GIDAN P570 KITAL L894 BIBGO DCT SUNAN/N0499F330 L894 SAKEG DCT 10S087E 13S090E 17S095E/N0490F350 20S100E 22S104E DCT NONOG DCT ANKEL DCT LEO/N0481F370 DCT 31S128E DCT CDU J149 WHA J21 BORLI DCT CULIN Y59 RIVET
Aircraft B77W/H-SDE1E2E3FGHIJ2J3J4J5M1RWXY/LB1D1

Departure

Time 2026-04-30 20:13
Airport Dubai International Airport (OMDB)

Arrival

Time N/A
Airport Sydney Kingsford Smith International Airport (YSSY)
Time Latitude Longitude Altitude Speed Heading
2026-04-30 19:31 25.25092 55.35926 29 ft 0 kts 211°
2026-04-30 19:57 25.25096 55.35929 31 ft 4 kts 211°
2026-04-30 19:58 25.25116 55.35942 31 ft 2 kts 211°
2026-04-30 19:58 25.25136 55.35959 31 ft 4 kts 227°
2026-04-30 19:58 25.25151 55.35983 31 ft 4 kts 252°
2026-04-30 19:58 25.25154 55.36011 31 ft 4 kts 285°
2026-04-30 19:59 25.25143 55.36036 31 ft 4 kts 302°
2026-04-30 19:59 25.25129 55.36061 31 ft 4 kts 302°
2026-04-30 19:59 25.25120 55.36078 32 ft 0 kts 302°
2026-04-30 20:01 25.25123 55.36072 31 ft 2 kts 302°
2026-04-30 20:01 25.25138 55.36044 31 ft 6 kts 302°
2026-04-30 20:02 25.25193 55.35946 30 ft 11 kts 301°
2026-04-30 20:02 25.25234 55.35873 30 ft 11 kts 301°
2026-04-30 20:03 25.25316 55.35723 29 ft 12 kts 301°
2026-04-30 20:03 25.25359 55.35646 30 ft 12 kts 301°
2026-04-30 20:03 25.25401 55.35568 29 ft 12 kts 301°
2026-04-30 20:03 25.25446 55.35489 29 ft 12 kts 302°
2026-04-30 20:04 25.25492 55.35409 29 ft 12 kts 302°
2026-04-30 20:04 25.25538 55.35329 29 ft 13 kts 302°
2026-04-30 20:04 25.25585 55.35247 30 ft 13 kts 302°
2026-04-30 20:05 25.25719 55.35179 30 ft 13 kts 29°
2026-04-30 20:05 25.25797 55.35228 30 ft 13 kts 31°
2026-04-30 20:05 25.25951 55.35335 30 ft 13 kts 32°
2026-04-30 20:06 25.26002 55.35416 31 ft 13 kts 76°
2026-04-30 20:06 25.25998 55.35525 26 ft 16 kts 105°
2026-04-30 20:06 25.25942 55.35640 26 ft 19 kts 121°
2026-04-30 20:06 25.25869 55.35771 26 ft 21 kts 123°
2026-04-30 20:07 25.25783 55.35916 27 ft 24 kts 123°
2026-04-30 20:07 25.25696 55.36070 27 ft 24 kts 120°
2026-04-30 20:07 25.25525 55.36381 27 ft 24 kts 122°
2026-04-30 20:08 25.25438 55.36535 27 ft 24 kts 122°
2026-04-30 20:08 25.25351 55.36689 30 ft 24 kts 121°
2026-04-30 20:08 25.25266 55.36844 27 ft 24 kts 121°
2026-04-30 20:08 25.25179 55.36999 27 ft 24 kts 122°
2026-04-30 20:09 25.25093 55.37153 28 ft 24 kts 122°
2026-04-30 20:09 25.25006 55.37307 28 ft 24 kts 122°
2026-04-30 20:09 25.24831 55.37615 27 ft 24 kts 122°
2026-04-30 20:10 25.24676 55.37889 27 ft 12 kts 122°
2026-04-30 20:10 25.24682 55.37961 27 ft 9 kts 48°
2026-04-30 20:10 25.24722 55.37992 28 ft 6 kts 33°
2026-04-30 20:11 25.24813 55.38011 30 ft 11 kts 310°
2026-04-30 20:11 25.24856 55.37936 30 ft 12 kts 302°
2026-04-30 20:11 25.24862 55.37925 30 ft 0 kts 302°
2026-04-30 20:12 25.25232 55.37255 32 ft 120 kts 301°
2026-04-30 20:12 25.25787 55.36259 30 ft 182 kts 302°
2026-04-30 20:12 25.26524 55.34917 69 ft 219 kts 301°
2026-04-30 20:13 25.27304 55.33537 778 ft 206 kts 301°
2026-04-30 20:13 25.28050 55.32202 1399 ft 202 kts 301°
2026-04-30 20:13 25.28757 55.30918 1997 ft 190 kts 302°
2026-04-30 20:13 25.29235 55.29579 2233 ft 195 kts 273°
2026-04-30 20:14 25.28975 55.28105 2386 ft 200 kts 248°
2026-04-30 20:14 25.28375 55.26719 2676 ft 200 kts 249°
2026-04-30 20:14 25.27786 55.25316 2918 ft 203 kts 248°
2026-04-30 20:14 25.27186 55.23895 3188 ft 204 kts 248°
2026-04-30 20:15 25.26586 55.22478 3479 ft 203 kts 248°
2026-04-30 20:15 25.25983 55.21059 3707 ft 209 kts 247°
2026-04-30 20:15 25.25347 55.19559 3820 ft 222 kts 247°
2026-04-30 20:15 25.24653 55.18001 4024 ft 231 kts 239°
2026-04-30 20:16 25.23419 55.16828 4160 ft 246 kts 200°
2026-04-30 20:16 25.21682 55.16643 4295 ft 258 kts 176°
2026-04-30 20:16 25.19885 55.16876 4597 ft 262 kts 167°
2026-04-30 20:16 25.18267 55.17797 4876 ft 270 kts 133°
2026-04-30 20:17 25.17240 55.19563 5006 ft 281 kts 115°
2026-04-30 20:17 25.16351 55.21526 5331 ft 290 kts 117°
2026-04-30 20:17 25.15407 55.23518 5786 ft 294 kts 118°
2026-04-30 20:17 25.14448 55.25523 6329 ft 297 kts 119°
2026-04-30 20:18 25.13477 55.27550 6844 ft 300 kts 119°
2026-04-30 20:18 25.12499 55.29590 7351 ft 302 kts 119°
2026-04-30 20:18 25.11509 55.31649 7833 ft 305 kts 119°
2026-04-30 20:18 25.10518 55.33731 8326 ft 308 kts 117°
2026-04-30 20:19 25.09616 55.35881 8817 ft 311 kts 115°
2026-04-30 20:19 25.08734 55.38071 9309 ft 314 kts 116°
2026-04-30 20:19 25.07838 55.40276 9795 ft 317 kts 116°
2026-04-30 20:19 25.06934 55.42507 10225 ft 322 kts 115°
2026-04-30 20:20 25.06036 55.44832 10384 ft 339 kts 115°
2026-04-30 20:20 25.05101 55.47285 10535 ft 356 kts 115°
2026-04-30 20:20 25.04116 55.49860 10672 ft 373 kts 115°
2026-04-30 20:20 25.03079 55.52557 10827 ft 390 kts 115°
2026-04-30 20:21 25.02001 55.55342 11188 ft 400 kts 116°
2026-04-30 20:21 25.00725 55.58089 11625 ft 405 kts 123°
2026-04-30 20:21 24.99241 55.60732 12251 ft 407 kts 125°
2026-04-30 20:21 24.97717 55.63375 12923 ft 409 kts 124°
2026-04-30 20:22 24.96227 55.66049 13552 ft 412 kts 124°
2026-04-30 20:22 24.94749 55.68767 14093 ft 415 kts 123°
2026-04-30 20:22 24.93215 55.71481 14608 ft 418 kts 127°
2026-04-30 20:22 24.91511 55.74089 15119 ft 421 kts 130°
2026-04-30 20:23 24.89733 55.76670 15635 ft 425 kts 130°
2026-04-30 20:23 24.87946 55.79276 16138 ft 428 kts 129°
2026-04-30 20:23 24.86171 55.81921 16658 ft 432 kts 129°
2026-04-30 20:23 24.84391 55.84602 17158 ft 436 kts 128°
2026-04-30 20:24 24.82590 55.87302 17643 ft 439 kts 129°
2026-04-30 20:24 24.80757 55.90018 18101 ft 444 kts 129°
2026-04-30 20:24 24.78904 55.92754 18494 ft 448 kts 129°
2026-04-30 20:24 24.76956 55.95376 18901 ft 447 kts 137°
2026-04-30 20:25 24.72318 55.99963 19785 ft 450 kts 142°
2026-04-30 20:25 24.69979 56.02271 20264 ft 453 kts 141°
2026-04-30 20:26 24.65326 56.07046 21117 ft 460 kts 140°
2026-04-30 20:26 24.60619 56.11873 22017 ft 465 kts 141°
2026-04-30 20:26 24.58250 56.14304 22443 ft 469 kts 140°
2026-04-30 20:27 24.53768 56.19606 23234 ft 479 kts 134°
2026-04-30 20:27 24.49432 56.25235 23917 ft 484 kts 134°
2026-04-30 20:28 24.45047 56.30875 24559 ft 488 kts 134°
2026-04-30 20:28 24.40592 56.36534 25184 ft 492 kts 134°
2026-04-30 20:29 24.36093 56.42244 25755 ft 497 kts 134°